This demonstration page uses our WeatherBlox Daily Observations layout. Learn more.

Hourly Observations for January 25, 2019

Temp ( °F °C ) Dew Point ( °F °C ) Humidity (%) Winds ( mph kmh ) Pressure ( in mb ) Visibility ( mi km ) Precip ( " mm )
12:15 am 00:15 Clear 14 -10.1 10 -12.5 83 83 S 9 15 30.36 1028 10 16.0934 0 0
12:35 am 00:35 Clear 15 -9.2 11 -11.8 82 82 SSW 14 22 30.36 1028 10 16.0934 0 0
12:55 am 00:55 Clear 15 -9.5 11 -11.8 84 84 SW 10 17 30.33 1027 10 16.0934 0 0
1:15 am 01:15 Clear 15 -9.5 11 -11.5 86 86 SW 8 13 30.33 1027 10 16.0934 0 0
1:35 am 01:35 Clear 15 -9.7 11 -11.5 87 87 SW 8 13 30.33 1027 10 16.0934 0 0
1:55 am 01:55 Clear 14 -10 11 -11.5 89 89 SW 8 13 30.33 1027 10 16.0934 0 0
2:15 am 02:15 Clear 15 -9.5 12 -11 89 89 SW 8 13 30.33 1027 10 16.0934 0 0
2:35 am 02:35 Partly Cloudy 15 -9.7 12 -11.1 90 90 SW 8 13 30.33 1027 10 16.0934 0 0
2:55 am 02:55 Cloudy 16 -9 14 -10.2 91 91 SW 9 15 30.33 1027 10 16.0934 0 0
3:15 am 03:15 Cloudy 17 -8.6 14 -10 90 90 SW 9 15 30.3 1026 10 16.0934 0 0
3:35 am 03:35 Cloudy 17 -8.6 14 -10 90 90 SW 9 15 30.3 1026 10 16.0934 0 0
3:55 am 03:55 Mostly Cloudy 17 -8.2 15 -9.5 90 90 SW 13 20 30.27 1025 10 16.0934 0 0
4:15 am 04:15 Clear 17 -8.3 15 -9.7 90 90 WSW 12 19 30.27 1025 10 16.0934 0 0
4:35 am 04:35 Clear 17 -8.5 14 -10 89 89 SW 12 19 30.24 1024 10 16.0934 0 0
4:55 am 04:55 Clear 17 -8.1 15 -9.7 88 88 WSW 12 19 30.24 1024 10 16.0934 0 0
5:15 am 05:15 Partly Cloudy 18 -7.7 15 -9.7 86 86 WSW 13 20 30.24 1024 10 16.0934 0 0
5:35 am 05:35 Partly Cloudy 19 -7.3 15 -9.6 84 84 W 15 24 30.21 1023 10 16.0934 0 0
5:55 am 05:55 Mostly Cloudy 19 -7.4 14 -9.8 83 83 WSW 18 30 30.21 1023 10 16.0934 0 0
6:15 am 06:15 Cloudy 20 -6.8 15 -9.4 82 82 WSW 14 22 30.21 1023 10 16.0934 0 0
6:35 am 06:35 Cloudy 19 -7 15 -9.6 82 82 W 17 28 30.21 1023 10 16.0934 0 0
6:55 am 06:55 Cloudy 20 -6.7 15 -9.5 81 81 W 16 26 30.24 1024 10 16.0934 0 0
7:15 am 07:15 Cloudy 22 -5.3 17 -8.4 79 79 W 15 24 30.21 1023 10 16.0934 0 0
7:35 am 07:35 Mostly Cloudy 23 -4.9 17 -8.5 76 76 W 14 22 30.21 1023 10 16.0934 0 0
7:55 am 07:55 Sunny 22 -5.5 16 -8.7 78 78 W 12 19 30.21 1023 10 16.0934 0 0
8:15 am 08:15 Sunny 22 -5.5 17 -8.6 79 79 W 14 22 30.21 1023 10 16.0934 0 0
8:35 am 08:35 Mostly Cloudy 22 -5.5 17 -8.6 79 79 W 14 22 30.21 1023 10 16.0934 0 0
8:55 am 08:55 Mostly Cloudy 23 -4.9 17 -8.3 77 77 W 13 20 30.21 1023 10 16.0934 0 0
9:15 am 09:15 Partly Cloudy 23 -4.8 17 -8.1 78 78 W 12 19 30.21 1023 10 16.0934 0 0
9:35 am 09:35 Mostly Cloudy 24 -4.6 18 -7.9 78 78 W 13 20 30.24 1024 10 16.0934 0 0
9:55 am 09:55 Partly Cloudy 25 -4 19 -7.5 77 77 W 10 17 30.21 1023 10 16.0934 0 0
10:15 am 10:15 Sunny 27 -2.6 20 -6.7 74 74 W 13 20 30.18 1022 10 16.0934 0 0
10:35 am 10:35 Sunny 28 -2 20 -6.5 72 72 W 10 17 30.21 1023 10 16.0934 0 0
10:55 am 10:55 Partly Cloudy 31 -0.5 22 -5.6 69 69 W 12 19 30.21 1023 10 16.0934 0 0
11:15 am 11:15 Mostly Cloudy 32 0 23 -5.2 68 68 W 15 24 30.21 1023 10 16.0934 0 0
11:35 am 11:35 Partly Cloudy 33 0.5 23 -4.9 67 67 W 13 20 30.18 1022 10 16.0934 0 0
11:55 am 11:55 Sunny 34 1.1 25 -4 69 69 W 10 17 30.18 1022 10 16.0934 0 0
12:15 pm 12:15 Partly Cloudy 35 1.7 25 -4 66 66 W 10 17 30.15 1021 10 16.0934 0 0
12:35 pm 12:35 Mostly Cloudy 37 2.9 25 -3.8 62 62 WNW 15 24 30.15 1021 10 16.0934 0 0
12:55 pm 12:55 Mostly Cloudy 37 2.7 24 -4.4 60 60 NNW 12 19 30.15 1021 10 16.0934 0 0
1:15 pm 13:15 Cloudy 36 2.3 24 -4.3 62 62 NNW 10 17 30.15 1021 10 16.0934 0 0
1:35 pm 13:35 Cloudy 37 3 25 -3.8 61 61 N 9 15 30.15 1021 10 16.0934 0 0
1:55 pm 13:55 Cloudy 37 2.7 25 -4 62 62 NNW 7 11 30.12 1020 10 16.0934 0 0
2:15 pm 14:15 Mostly Cloudy 38 3.1 26 -3.5 62 62 NNW 6 9 30.15 1021 10 16.0934 0 0
2:35 pm 14:35 Mostly Cloudy 38 3.6 26 -3.2 61 61 N 9 15 30.12 1020 10 16.0934 0 0
2:55 pm 14:55 Mostly Cloudy 38 3.5 27 -2.9 63 63 N 7 11 30.12 1020 10 16.0934 0 0
3:15 pm 15:15 Partly Cloudy 37 3 28 -2.4 68 68 N 6 9 30.15 1021 10 16.0934 0 0
3:35 pm 15:35 Partly Cloudy 38 3.2 28 -2.1 69 69 N 6 9 30.15 1021 10 16.0934 0 0
3:55 pm 15:55 Mostly Cloudy 38 3.1 28 -2 70 70 NNW 5 7 30.15 1021 10 16.0934 0 0
4:15 pm 16:15 Cloudy 38 3.1 29 -1.9 70 70 NNW 5 7 30.15 1021 10 16.0934 0 0
4:35 pm 16:35 Mostly Cloudy 38 3.3 28 -2.2 68 68 N 3 6 30.12 1020 10 16.0934 0 0
4:55 pm 16:55 Mostly Cloudy 37 2.5 28 -2.3 71 71 NNE 5 7 30.15 1021 10 16.0934 0 0
5:15 pm 17:15 Partly Cloudy 36 2.1 28 -2.1 74 74 NNE 5 7 30.15 1021 10 16.0934 0 0
5:35 pm 17:35 Sunny 34 1.2 28 -2.4 77 77 ENE 3 6 30.15 1021 10 16.0934 0 0
5:55 pm 17:55 Clear 32 0.1 27 -2.7 82 82 E 3 6 30.18 1022 10 16.0934 0 0
6:15 pm 18:15 Partly Cloudy 32 -0.2 27 -2.9 82 82 E 5 7 30.18 1022 10 16.0934 0 0
6:35 pm 18:35 Cloudy 32 0 27 -2.7 82 82 SE 5 7 30.18 1022 10 16.0934 0 0
6:55 pm 18:55 Mostly Cloudy 32 -0.1 27 -2.6 83 83 SSE 6 9 30.18 1022 10 16.0934 0 0
7:15 pm 19:15 Partly Cloudy 30 -1.1 26 -3.1 86 86 SSE 6 9 30.18 1022 10 16.0934 0 0
7:35 pm 19:35 Clear 30 -1.2 26 -3.2 86 86 SSE 5 7 30.21 1023 10 16.0934 0 0
7:55 pm 19:55 Clear 30 -1.2 26 -3.1 87 87 SSE 5 7 30.21 1023 10 16.0934 0 0
8:15 pm 20:15 Clear 27 -2.7 25 -4 91 91 Calm 30.24 1024 10 16.0934 0 0
8:35 pm 20:35 Partly Cloudy 26 -3.2 25 -4 94 94 E 5 7 30.24 1024 10 16.0934 0 0
8:55 pm 20:55 Partly Cloudy 28 -2.2 26 -3.1 94 94 ESE 6 9 30.21 1023 10 16.0934 0 0
9:15 pm 21:15 Partly Cloudy 29 -1.6 27 -3 90 90 SSE 6 9 30.21 1023 10 16.0934 0 0
9:35 pm 21:35 Mostly Cloudy 29 -1.7 26 -3.2 90 90 SSE 6 9 30.21 1023 10 16.0934 0 0
9:55 pm 21:55 Cloudy 30 -1.3 26 -3.2 87 87 SSE 8 13 30.21 1023 10 16.0934 0 0
10:15 pm 22:15 Cloudy 29 -1.5 26 -3.3 88 88 S 5 7 30.21 1023 10 16.0934 0 0
10:35 pm 22:35 Partly Cloudy 30 -1.2 26 -3.5 85 85 S 7 11 30.18 1022 10 16.0934 0 0
10:55 pm 22:55 Clear 29 -1.9 25 -3.7 88 88 Calm 30.21 1023 10 16.0934 0 0
11:15 pm 23:15 Mostly Cloudy 31 -0.7 26 -3.5 82 82 S 10 17 30.18 1022 10 16.0934 0 0
11:35 pm 23:35 Mostly Cloudy 30 -1.2 25 -3.7 83 83 S 8 13 30.18 1022 10 16.0934 0 0
11:55 pm 23:55 Mostly Cloudy 29 -1.6 26 -3.6 86 86 S 7 11 30.18 1022 10 16.0934 0 0

Powered by AerisWeather